Philip, SD

4:47 PM MST on February 27, 2017 (GMT -0700)
Philip

Weather History for KPHP - September, 2012

Change the Weather History Date:

Wednesday, September 12, 2012

  Actual Average Record
Temperature  
Mean Temperature 63 °F 64 °F  
Max Temperature 76 °F 79 °F 99 °F (2004)
Min Temperature 49 °F 49 °F 30 °F (1949)
Degree Days  
Heating Degree Days 2 4  
Month to date heating degree days 5 35  
Since 1 July heating degree days 10 60  
Cooling Degree Days 0 3  
Month to date cooling degree days 85 51  
Year to date cooling degree days 1196 786  
Growing Degree Days 12 (Base 50)    
Moisture  
Dew Point 35 °F    
Average Humidity 40    
Maximum Humidity 61    
Minimum Humidity 19    
Precipitation  
Precipitation 0.00 in 0.05 in 0.42 in (1961)
Month to date precipitation T 0.61  
Year to date precipitation 5.99 13.99  
Sea Level Pressure  
Sea Level Pressure 30.19 in    
Wind  
Wind Speed 3 mph (SW)    
Max Wind Speed 12 mph    
Max Gust Speed 14 mph    
Visibility 10 miles    
Events      
T = Trace of Precipitation, MM = Missing Value Source: NWS Daily Summary

Daily Weather History Graph

Daily Weather History Graph

Search for Another Location

Airport or City:

Trip Planner

Search our weather history database for the weather conditions in past years. The results will help you decide how hot, cold, wet, or windy it might be!

Date:

Astronomy

Sep. 12, 2012 Rise Set
Actual Time 6:22 AM MDT 7:01 PM MDT
Civil Twilight 5:53 AM MDT 7:30 PM MDT
Nautical Twilight 5:19 AM MDT 8:04 PM MDT
Astronomical Twilight 4:43 AM MDT 8:40 PM MDT
Moon 2:35 AM MDT (9/12) 4:55 PM MDT (9/12)
Length of Visible Light 13h 36m
Length of Day
12h 38m
Waning Crescent, 13% of the Moon is Illuminated
Sep 12
Waning Crescent
Sep 15
New
Sep 22
First Quarter
Sep 29
Full
Oct 8
Last Quarter

Hourly Weather History & Observations

Time (MDT) Temp. Dew Point Humidity Pressure Visibility Wind Dir Wind Speed Gust Speed Precip Events Conditions
12:55 AM 61.0 °F 28.0 °F 29% 30.06 in 10.0 mi Calm Calm - N/A   Clear
1:55 AM 60.1 °F 36.0 °F 41% 30.07 in 10.0 mi SE 5.8 mph - N/A   Clear
2:55 AM 57.9 °F 39.0 °F 49% 30.08 in 10.0 mi SSE 3.5 mph - N/A   Clear
3:55 AM 55.9 °F 39.9 °F 55% 30.08 in 10.0 mi Calm Calm - N/A   Clear
4:55 AM 54.0 °F 39.9 °F 59% 30.10 in 10.0 mi West 3.5 mph - N/A   Clear
5:55 AM 51.1 °F 37.9 °F 61% 30.14 in 10.0 mi WNW 4.6 mph - N/A   Clear
6:55 AM 50.0 °F 37.0 °F 61% 30.17 in 10.0 mi Calm Calm - N/A   Clear
7:55 AM 53.1 °F 39.0 °F 59% 30.20 in 10.0 mi Calm Calm - N/A   Clear
8:55 AM 57.9 °F 39.9 °F 51% 30.21 in 10.0 mi West 3.5 mph - N/A   Clear
9:55 AM 63.0 °F 41.0 °F 45% 30.22 in 10.0 mi Calm Calm - N/A   Clear
10:55 AM 66.9 °F 37.0 °F 33% 30.22 in 10.0 mi Calm Calm - N/A   Clear
11:55 AM 70.0 °F 33.1 °F 26% 30.22 in 10.0 mi Variable 5.8 mph - N/A   Clear
12:55 PM 71.1 °F 30.0 °F 22% 30.22 in 10.0 mi Calm Calm - N/A   Clear
1:55 PM 72.0 °F 28.0 °F 20% 30.20 in 10.0 mi Calm Calm - N/A   Unknown
2:55 PM 73.9 °F 28.9 °F 19% 30.19 in 10.0 mi Variable 4.6 mph - N/A   Clear
3:55 PM 73.9 °F 28.9 °F 19% 30.19 in 10.0 mi WNW 4.6 mph - N/A   Clear
4:55 PM 73.0 °F 28.9 °F 20% 30.19 in 10.0 mi Calm Calm - N/A   Clear
5:55 PM 73.0 °F 28.9 °F 20% 30.21 in 10.0 mi SSE 4.6 mph - N/A   Clear
6:55 PM 66.9 °F 33.1 °F 28% 30.23 in 10.0 mi South 4.6 mph - N/A   Clear
7:55 PM 62.1 °F 35.1 °F 37% 30.25 in 10.0 mi South 5.8 mph - N/A   Clear
8:55 PM 57.9 °F 36.0 °F 44% 30.28 in 10.0 mi Calm Calm - N/A   Clear
9:55 PM 54.0 °F 36.0 °F 51% 30.30 in 10.0 mi West 5.8 mph - N/A   Clear
10:55 PM 53.1 °F 37.0 °F 55% 30.30 in 10.0 mi West 5.8 mph - N/A   Clear
11:55 PM 51.1 °F 37.0 °F 59% 30.30 in 10.0 mi West 5.8 mph - N/A   Clear